Weather Roundup
Issued by NWS Springfield, MO

Home | Current Version | Previous Version | Text Only | Print | Product List | Glossary On
Versions: 1 2 3 4 5 6 7 8 9 10 11 12 13 14 15 16 17 18 19 20 21 22 23 24 25 26 27 28 29 30 31 32 33 34 35 36 37 38 39 40 41 42 43 44 45 46 47 48 49 50
000
NZUS99 KSGF 040657
HRRSGF

HOURLY WEATHER
NATIONAL WEATHER SERVICE SPRINGFIELD MO
200 AM CDT FRI SEP 04 2015

......SGF CWA......

CITY           SKY/WX    TMP DP  RH WIND       PRES   REMARKS
SPRINGFIELD    CLEAR     72  67  84 SE7       29.98S
JOPLIN         CLEAR     75  67  76 SE5       29.96S
WEST PLAINS    CLEAR     69  66  90 CALM      30.02S
ROLLA          CLEAR     72  67  84 S6        29.98S

......SURROUNDING SGF CWA......

CITY           SKY/WX    TMP DP  RH WIND       PRES   REMARKS
CHANUTE        MOCLDY    73  68  84 SE7       29.94R
PARSONS        MOCLDY    75  69  81 SE5       29.94S
COFFEYVILLE    PTCLDY    74  69  85 S6        29.92F
EMPORIA        MOCLDY    73  68  84 S12       29.92R
HARRISON AR    CLEAR     70  68  93 SE3       30.00S

......KANSAS AND MISSOURI......

CITY           SKY/WX    TMP DP  RH WIND       PRES   REMARKS
KANSAS CTY INT MOCLDY    73  67  81 S9        29.93S
SEDALIA        PTCLDY    73  68  84 S6        29.97S
ST JOSEPH      PTCLDY    72  68  87 S6        29.91S
ST LOUIS       CLEAR     80  69  69 CALM      29.97S
WICHITA        CLOUDY    76  64  66 S9        29.90R
TOPEKA         PTCLDY    75  68  78 S8        29.91R
OLATHE         PTCLDY    71  67  87 S5        29.94R

......TENNESSEE......

CITY           SKY/WX    TMP DP  RH WIND       PRES   REMARKS
MEMPHIS        NOT AVBL
NASHVILLE      PTCLDY    77  67  71 CALM      29.98S

......ARKANSAS.......

CITY           SKY/WX    TMP DP  RH WIND       PRES   REMARKS
FAYETTEVILLE   CLEAR     67  67 100 CALM      29.99S FOG
FT SMITH       CLEAR     75  69  81 NE3       29.93S
LITTLE ROCK    CLEAR     76  70  82 CALM      29.94F

......OKLAHOMA.......

CITY           SKY/WX    TMP DP  RH WIND       PRES   REMARKS
TULSA          CLOUDY    75  71  87 SE6       29.91R
PONCA CITY     PTCLDY    77  65  66 SE12      29.90S
MCALESTER      CLEAR     75  64  68 SE3       29.94R
OKLAHOMA CITY  MOCLDY    72  64  76 SE9       29.91F

......IOWA............

CITY           SKY/WX    TMP DP  RH WIND       PRES   REMARKS
DES MOINES     NOT AVBL
QUAD CITIES    CLEAR     72  68  87 CALM      29.94R

......ILLINOIS........

CITY           SKY/WX    TMP DP  RH WIND       PRES   REMARKS
QUINCY         NOT AVBL
CHICAGO        PTCLDY    70  67  90 NE3       29.96F



USA.gov is the U.S. government's official web portal to all federal, state and local government web resources and services.